Location: São Paulo
(23.5507°S, 46.6334°W)
Time: 17:35:36
(UTC-03:00)

A-11 Canister half - Pass Details

Date: 06 February 2026
Orbit: 1524 x 1683 km, 47.3° (Epoch: 13 March)

Event Time Altitude Azimuth Distance (km) Brightness Sun altitude
Rises 05:16:07 0° 331° (NNW) 4,849 11.2 -7.9°
Reaches altitude 10° 05:19:18 10° 336° (NNW) 3,885 10.7 -7.2°
Maximum altitude 05:28:58 55° 50° (NE) 1,958 9.8 -5.2°
Drops below altitude 10° 05:38:47 10° 124° (SE) 3,958 12.8 -3.0°
Sets 05:42:02 0° 128° (SE) 4,946 13.3 -2.3°
